Hourly Weather Roundup
Issued by NWS Central Illinois

Home | Current Version | Previous Version | Text Only | Print | Product List | Glossary On
Versions: 1 2 3 4 5 6 7 8 9 10 11 12 13 14 15 16 17 18 19 20 21 22 23 24 25 26 27 28 29 30 31 32 33 34 35 36 37 38 39 40 41 42 43 44 45 46 47 48 49 50
000
NZUS43 KILX 280510
HWRILX

AREA WEATHER ROUNDUP
NATIONAL WEATHER SERVICE, LINCOLN IL
1100 PM CST THU NOV 27 2014


CITY           SKY/WX    TMP DP  RH WIND       PRES   REMARKS
BLOOMINGTON    PTCLDY    13  10  87 CALM      30.39F
CHAMPAIGN      CLEAR     14  10  84 N3        30.40F
DECATUR        PTCLDY    15   8  73 CALM      30.42F
FLORA          PTCLDY    15  14  96 CALM      30.46S FOG
GALESBURG      CLOUDY    12   7  83 CALM      30.41S
JACKSONVILLE   CLOUDY    19  10  69 E3        30.43S
LACON          PTCLDY    11   8  84 CALM      30.42R
LAWRENCEVILLE  PTCLDY    21  19  92 CALM      30.46S
LITCHFIELD     MOCLDY    19  11  74 CALM      30.43F
$$


CITY           SKY/WX    TMP DP  RH WIND       PRES   REMARKS
LINCOLN        PTCLDY    16   8  72 SW3       30.46S
MACOMB         CLOUDY    13   5  72 CALM      30.44S
MATTOON        CLEAR     16  10  77 CALM      30.41F
MT CARMEL AP   PTCLDY    21  18  86 CALM      30.46S
OLNEY-NOBLE AP PTCLDY    16  14  93 CALM      30.46S
PARIS          CLEAR     17  14  88 CALM      30.42F
PEORIA         MOCLDY    14   8  77 SW7       30.43S WCI   4
PONTIAC        PTCLDY    14  10  83 CALM      30.41F
RANTOUL        CLEAR     18  10  70 N6        30.40F WCI  10
ROBINSON       CLEAR     19  16  88 CALM      30.46F
SPRINGFIELD    CLOUDY    16  12  84 CALM      30.44F
TAYLORVILLE    MOCLDY    18   9  68 CALM      30.44S
$$

...REGIONAL REPORTS...


CITY           SKY/WX    TMP DP  RH WIND       PRES   REMARKS
CHICAGO O`HARE PTCLDY    18  12  77 CALM      30.38F
KANKAKEE       PTCLDY   N/A N/A N/A W5        30.41F
MOLINE         CLOUDY    13   6  74 SW6       30.41S WCI   4
MOUNT VERNON   PTCLDY    19  16  86 CALM      30.46R
PITTSFIELD     CLOUDY    21  14  75 E3        30.42F
QUINCY         CLOUDY    18   9  68 E7        30.40F WCI   9
ROCKFORD       CLOUDY    11   5  77 S3        30.39F
$$


CITY           SKY/WX    TMP DP  RH WIND       PRES   REMARKS
BURLINGTON     CLOUDY    14   7  73 SE5       30.39F WCI   6
CEDAR RAPIDS   CLOUDY    12   6  77 S6        30.34F WCI   3
DES MOINES     MOCLDY    15   5  64 SE9       30.31S WCI   3
KIRKSVILLE     PTCLDY    20  15  81 SE9       30.33F WCI   9
OTTUMWA        MOCLDY    13   4  67 SE8       30.34F WCI   2
ST LOUIS       CLOUDY    27  19  72 E7        30.43F WCI  19
$$


CITY           SKY/WX    TMP DP  RH WIND       PRES   REMARKS
TERRE HAUTE    CLEAR     19  14  81 NW3       30.44F
EVANSVILLE     CLEAR     23  19  85 W3        30.47S
INDIANAPOLIS   FLURRIES  24  16  71 NW9       30.39S WCI  14
LAFAYETTE      PTCLDY    19  15  84 W6        30.42S WCI  11
MADISON        CLOUDY    11   6  81 CALM      30.35F
MILWAUKEE      MOCLDY    14   7  73 W5        30.38S WCI   6
$$




USA.gov is the U.S. government's official web portal to all federal, state and local government web resources and services.